Regional Weather Roundup
Issued by NWS

Home | Current Version | Previous Version | Text Only | Print | Product List | Glossary Off
Versions: 1 2 3 4 5 6 7 8 9 10 11 12 13 14 15 16 17 18 19 20 21 22 23 24 25 26 27 28 29 30 31 32 33 34 35 36 37 38 39 40 41 42 43 44 45 46 47 48 49 50

000
ASUS43 KBIS 260602
RWRND

NORTH DAKOTA REGIONAL WEATHER ROUNDUP
NATIONAL WEATHER SERVICE BISMARCK ND
100 AM CDT FRI AUG 26 2016

NOTE: "FAIR" INDICATES FEW OR NO CLOUDS BELOW 12,000 FEET WITH NO
SIGNIFICANT WEATHER AND/OR OBSTRUCTIONS TO VISIBILITY.


NDZ001>003-009>011-017-260700-
NORTHWEST NORTH DAKOTA

CITY           SKY/WX    TMP DP  RH WIND       PRES   REMARKS
WILLISTON      FAIR      55  39  54 CALM      30.09S
6HR MIN TEMP:  55; 6HR MAX TEMP:  75;

MINOT          CLOUDY    58  44  60 S3        30.07S
MINOT AFB      CLOUDY    55  43  62 S6        30.06S
$$

NDZ018>021-031>035-040>046-260700-
SOUTHWEST NORTH DAKOTA

CITY           SKY/WX    TMP DP  RH WIND       PRES   REMARKS
BISMARCK       FAIR      52  45  77 CALM      30.13S
6HR MIN TEMP:  52; 6HR MAX TEMP:  68;

DICKINSON      FAIR      48  39  71 SW5       30.13S
GARRISON         N/A     50  45  83 SW5       30.09S
6HR MIN TEMP:  48; 6HR MAX TEMP:  70;

HETTINGER ARPT FAIR      50  40  68 SE7       30.19R
$$

NDZ004>008-012>016-024-026-027-054-260700-
NORTHEAST NORTH DAKOTA

CITY           SKY/WX    TMP DP  RH WIND       PRES   REMARKS
GRAND FORKS    FAIR      50  47  89 SW5       30.06R
GRND FRKS AFB  FAIR      52  49  90 W6        30.06S
DEVILS LAKE    FAIR      61  54  77 SW8       30.09R
$$

NDZ022-023-025-028>030-036>039-047>053-260700-
SOUTHEAST NORTH DAKOTA

CITY           SKY/WX    TMP DP  RH WIND       PRES   REMARKS
FARGO          FAIR      56  50  80 SW9       30.11R
6HR MIN TEMP:  56; 6HR MAX TEMP:  68;

JAMESTOWN      FAIR      55  49  80 SW9       30.12R
$$





USA.gov is the U.S. government's official web portal to all federal, state and local government web resources and services.